Location: Chuathbaluk
(61.5726°N, 159.2454°W)
Time: 15:52:36
(UTC+00:00)

S-56A Canister/Altair - Pass Details

Date: 02 December 2020
Orbit: 633 x 2499 km, 38.9° (Epoch: 15 January)

Event Time Altitude Azimuth Distance (km) Brightness Sun altitude
Rises 08:03:24 0° 243° (WSW) 5,177 12.0 -43.5°
Enters shadow 08:08:40 - 225° (SW) 3,865 11.1 -43.9°
Reaches altitude 10° 08:09:20 10° 222° (SW) 3,725 - -44.0°
Maximum altitude 08:13:18 14° 196° (SSW) 3,122 - -44.3°
Drops below altitude 10° 08:16:44 10° 170° (S) 3,095 - -44.6°
Sets 08:20:45 0° 144° (SE) 3,705 - -44.9°
